This is the latest recevied weather packets stored in our database for station/object KM8V-8. If no packets are shown the sender has not sent any weather packets the latest 10 day(s).
| Time | Temp. | Humidity | Pressure | Rain* | Wind** | Luminosity | Snow |
|---|---|---|---|---|---|---|---|
| 1777514119 | 7.22° C | 100% | 1011.8 hPa | 0 mm | - | 0 W/m² | - |
| 1777513820 | 7.22° C | 100% | 1011.7 hPa | 0 mm | - | 0 W/m² | - |
| 1777513520 | 7.22° C | 100% | 1011.6 hPa | 0 mm | - | 0 W/m² | - |
| 1777513221 | 7.22° C | 100% | 1011.6 hPa | 0 mm | - | 0 W/m² | - |
| 1777512921 | 7.22° C | 100% | 1011.6 hPa | 0 mm | - | 0 W/m² | - |
| 1777512620 | 7.22° C | 100% | 1011.6 hPa | 0 mm | - | 0 W/m² | - |
| 1777512320 | 7.22° C | 100% | 1011.7 hPa | 0 mm | - | 0 W/m² | - |
| 1777512021 | 7.22° C | 100% | 1011.6 hPa | 0 mm | - | 0 W/m² | - |
| 1777511720 | 7.22° C | 100% | 1011.6 hPa | 0 mm | - | 0 W/m² | - |
| 1777511420 | 7.22° C | 100% | 1011.5 hPa | 0 mm | - | 0 W/m² | - |
| 1777511121 | 7.22° C | 100% | 1011.5 hPa | 0 mm | - | 0 W/m² | - |
| 1777510521 | 7.22° C | 100% | 1011.5 hPa | 0 mm | - | 0 W/m² | - |
| 1777509321 | 7.22° C | 100% | 1011.3 hPa | 0 mm | - | 0 W/m² | - |
| 1777508421 | 7.78° C | 100% | 1011 hPa | 0 mm | - | 2 W/m² | - |
| 1777507222 | 7.78° C | 100% | 1010.9 hPa | 0 mm | - | 4 W/m² | - |
| 1777506922 | 7.78° C | 100% | 1010.7 hPa | 0 mm | - | 4 W/m² | - |
| 1777505123 | 8.33° C | 100% | 1010.6 hPa | 0 mm | - | 29 W/m² | - |
| 1777502124 | 8.33° C | 100% | 1010.6 hPa | 0 mm | - | 40 W/m² | - |
| 1777501524 | 8.33° C | 100% | 1010.5 hPa | 0 mm | - | 33 W/m² | - |
| 1777498525 | 8.33° C | 100% | 1010 hPa | 0 mm | - | 71 W/m² | - |
| 1777497625 | 8.33° C | 100% | 1009.9 hPa | 0 mm | - | 58 W/m² | - |
| 1777496425 | 8.33° C | 100% | 1009.7 hPa | 0 mm | - | 62 W/m² | - |
| 1777493720 | 8.33° C | 99% | 1009.3 hPa | 0 mm | - | 65 W/m² | - |
| 1777491321 | 8.33° C | 99% | 1009.2 hPa | 0 mm | - | 89 W/m² | - |
| 1777491021 | 8.89° C | 99% | 1009.2 hPa | 0 mm | - | 88 W/m² | - |
* Rain latest hour (hover to see other rain measurements)
** Current wind speed in m/s (hover to see current wind gust speed)